Home   Weather   Pensacola   Past weeks

Flag for USA Past Weather in Pensacola, Florida, USA — Yesterday and Last 2 Weeks

Now
73 °F

Sunny.


Feels Like: 73 °F
Forecast: 62 / 78 °F
Wind: 8 mph from South

Location: Pensacola Regional Airport

Current Time: Jan 18, 2017 at 4:24:23 pm

Latest Report: Jan 18, 2017 at 3:53 pm


Visibility: 10 mi

Pressure: 30.08 "Hg

Humidity: 79%

Dew Point: 66 °F

Location of PensacolaLocation

Past Weather in Pensacola — Graph

°F

Pensacola Temperature Yesterday

Maximum temperature yesterday: 77 °F (at 11:53 am)
Minimum temperature yesterday: 65 °F (at 6:53 am)
Average temperature yesterday: 69 °F

High & Low Weather Summary for the Past Weeks

 TemperatureHumidityPressure
High77 °F (Jan 13, 12:53 pm)97% (Jan 4, 4:53 am)30.76 "Hg (Jan 4, 4:53 am)
Low26 °F (Jan 8, 5:53 am)25% (Jan 8, 2:53 pm)29.89 "Hg (Jan 6, 1:53 am)
Average58 °F77%30.24 "Hg
* Reported Jan 3 2:53 pm — Jan 18 2:53 pm, Pensacola, Weather by CustomWeather, © 2017

Note: Actual official high and low records may vary slightly from our data, if they occured in-between our weather recording intervals... More about our weather records

Advertising

Pensacola Weather History for the Previous 24 Hours

Scroll right to see more
 ConditionsComfort  
Time TempWeatherWind HumidityBarometerVisibility
2:53 pm
Wed, Jan 18
75 °FSunny.9 mph74%30.09 "Hg10 mi
1:53 pm75 °FPassing clouds.10 mph69%30.10 "Hg10 mi
12:53 pm77 °FSunny.7 mph69%30.12 "Hg10 mi
12:07 pm74 °FBroken clouds.7 mph76%30.14 "Hg10 mi
11:53 am75 °FMostly cloudy.5 mph74%30.15 "Hg10 mi
11:29 am76 °FPartly sunny.3 mph72%30.16 "Hg10 mi
10:53 am72 °FPartly sunny.No wind84%30.19 "Hg6 mi
10:17 am69 °FFog.No wind93%30.20 "Hg2 mi
10:01 am69 °FFog.No wind93%30.20 "Hg1 mi
9:33 am69 °FFog.No wind93%30.20 "Hg1 mi
8:53 am68 °FFog.No wind93%30.19 "Hg0 mi
8:07 am67 °FFog.No wind93%30.17 "Hg0 mi
7:53 am67 °FFog.No wind93%30.18 "Hg0 mi
7:34 am66 °FFog.No wind93%30.17 "Hg1 mi
7:06 am65 °FFog.5 mph97%30.18 "Hg0 mi
6:53 am65 °FFog.5 mph97%30.17 "Hg1 mi
6:09 am64 °FFog.No wind97%30.15 "Hg1 mi
5:53 am64 °FFog.3 mph94%30.15 "Hg0 mi
5:44 am64 °FFog.No wind97%30.15 "Hg1 mi
5:19 am64 °FFog.No wind97%30.14 "Hg0 mi
5:01 am64 °FFog.3 mph94%30.14 "Hg1 mi
4:21 am65 °FFog.No wind94%30.14 "Hg0 mi
3:53 am66 °FFog.No wind93%30.14 "Hg0 mi
3:37 am66 °FFog.No wind93%30.14 "Hg0 mi
3:21 am66 °FFog.No wind93%30.14 "Hg0 mi
2:53 am66 °FFog.No wind93%30.15 "Hg0 mi
1:53 am66 °FFog.5 mph93%30.14 "Hg0 mi
1:21 am66 °FFog.3 mph93%30.15 "Hg0 mi
12:53 am66 °FFog.No wind96%30.16 "Hg0 mi
11:53 pm
Tue, Jan 17
66 °FFog.No wind96%30.17 "Hg0 mi
10:53 pm66 °FFog.No wind93%30.19 "Hg0 mi
10:23 pm66 °FFog.No wind96%30.19 "Hg0 mi
10:03 pm66 °FFog.No wind93%30.19 "Hg2 mi
9:56 pm66 °FFog.No wind93%30.19 "Hg2 mi
9:37 pm67 °FFog.No wind90%30.19 "Hg1 mi
9:00 pm67 °FFog.3 mph93%30.17 "Hg2 mi
7:53 pm68 °FClear.3 mph90%30.19 "Hg9 mi
6:53 pm69 °FClear.8 mph87%30.17 "Hg10 mi
5:53 pm69 °FClear.5 mph87%30.18 "Hg10 mi
4:53 pm73 °FClear.8 mph79%30.18 "Hg10 mi
Weather by CustomWeather, © 2017

See weather overviewHow to use our weather pages